This is the latest recevied weather packets stored in our database for station/object KE1THD. If no packets are shown the sender has not sent any weather packets the latest 10 day(s).
| Time | Temp. | Humidity | Pressure | Rain* | Wind** | Luminosity | Snow |
|---|---|---|---|---|---|---|---|
| 1777582795 | 12.78° C | 65% | 1014.3 hPa | 0 mm | - | 93 W/m² | - |
| 1777582490 | 12.78° C | 65% | 1014.6 hPa | 0 mm | - | 149 W/m² | - |
| 1777582185 | 12.78° C | 65% | 1014.7 hPa | 0 mm | - | 138 W/m² | - |
| 1777581884 | 13.33° C | 64% | 1014.7 hPa | 0 mm | - | 155 W/m² | - |
| 1777581578 | 12.78° C | 65% | 1014.6 hPa | 0 mm | - | 132 W/m² | - |
| 1777581273 | 12.78° C | 65% | 1014.8 hPa | 0 mm | - | 173 W/m² | - |
| 1777580969 | 12.78° C | 65% | 1014.6 hPa | 0 mm | - | 287 W/m² | - |
| 1777580668 | 12.78° C | 65% | 1014.6 hPa | 0 mm | - | 296 W/m² | - |
| 1777580364 | 12.22° C | 67% | 1015 hPa | 0 mm | - | 215 W/m² | - |
| 1777580061 | 12.22° C | 66% | 1014.8 hPa | 0 mm | - | 172 W/m² | - |
| 1777579757 | 12.22° C | 66% | 1015.2 hPa | 0 mm | - | 144 W/m² | - |
| 1777579455 | 12.22° C | 67% | 1015.2 hPa | 0 mm | - | 139 W/m² | - |
| 1777579150 | 12.22° C | 67% | 1015.1 hPa | 0 mm | - | 135 W/m² | - |
| 1777578846 | 12.22° C | 67% | 1015.2 hPa | 0 mm | - | 111 W/m² | - |
| 1777578541 | 12.22° C | 66% | 1015.1 hPa | 0 mm | - | 115 W/m² | - |
| 1777578236 | 12.22° C | 65% | 1015 hPa | 0 mm | - | 138 W/m² | - |
| 1777577932 | 12.22° C | 66% | 1015.1 hPa | 0 mm | - | 143 W/m² | - |
| 1777577627 | 12.22° C | 66% | 1015.2 hPa | 0 mm | - | 145 W/m² | - |
| 1777577325 | 11.67° C | 66% | 1015.4 hPa | 0 mm | - | 183 W/m² | - |
| 1777577020 | 12.22° C | 66% | 1015.3 hPa | 0 mm | - | 196 W/m² | - |
| 1777576718 | 11.67° C | 66% | 1015.4 hPa | 0 mm | - | 215 W/m² | - |
| 1777576417 | 11.67° C | 67% | 1015.6 hPa | 0 mm | - | 190 W/m² | - |
| 1777576114 | 11.67° C | 67% | 1015.5 hPa | 0 mm | - | 193 W/m² | - |
| 1777575809 | 12.22° C | 66% | 1015.7 hPa | 0 mm | - | 162 W/m² | - |
| 1777575505 | 12.78° C | 66% | 1015.8 hPa | 0 mm | - | 258 W/m² | - |
* Rain latest hour (hover to see other rain measurements)
** Current wind speed in m/s (hover to see current wind gust speed)